Regional Weather Roundup
Issued by NWS Sterling, VA

Home | Current Version | Previous Version | Graphics & Text | Print | Product List | Glossary On
Versions: 1 2 3 4 5 6 7 8 9 10 11 12 13 14 15 16 17 18 19 20 21 22 23 24 25 26 27 28 29 30 31 32 33 34 35 36 37 38 39 40 41 42 43 44 45 46 47 48 49 50
000
ASUS41 KLWX 242010
RWRLWX

REGIONAL WEATHER ROUNDUP
NATIONAL WEATHER SERVICE BALTIMORE MD/WASHINGTON DC
400 PM EDT FRI MAR 24 2017

Note: "FAIR" indicates few or no clouds below 12,000 feet
with no significant weather and/or obstructions to visibility.
 TC=TEMPERATURE CELSIUS

 * =Non NWS site. Station does not report precipitation (e.g. rain,
    snow, etc.), thunder, or fog.

DCZ001-MDZ009-015-VAZ040>042-051-053>054-242100-
WASHINGTON METRO

CITY           SKY/WX    TMP DP  RH WIND       PRES   REMARKS
WASHINGTON NAT PTSUNNY   58  35  42 S17G24    30.25F
DULLES         PTSUNNY   59  36  42 SW16      30.23F
ANDREWS AFB    MOSUNNY   59  33  37 SW15      30.24F
FT BELVOIR     CLOUDY    59  33  37 S10G18    30.24F
QUANTICO       CLOUDY    58  38  47 SW12      30.27F
COLLEGE PARK*  MOSUNNY   55  32  41 S9G16     30.24F
LEESBURG*      CLOUDY    61  41  48 S13       30.23F
MANASSAS*      CLOUDY    60  36  40 SW10      30.25F

$$

MDZ006>007-011-014-242100-
BALTIMORE METRO

CITY           SKY/WX    TMP DP  RH WIND       PRES   REMARKS
BWI AIRPORT    CLOUDY    58  33  39 SW14      30.23F
MD SCIENCE CTR   N/A     60  32  34 MISG      30.24F
MARTIN STATE   PTSUNNY   54  37  54 SE14      30.25F
ANNAPOLIS      MOSUNNY   55  37  50 S13       30.24F
FORT MEADE*    CLOUDY    57  32  38 SW10G20   30.25F

$$

MDZ012-015-019>023-242100-
MARYLAND EASTERN SHORE

CITY           SKY/WX    TMP DP  RH WIND       PRES   REMARKS
OCEAN CITY     CLOUDY    51  41  68 S12G21    30.33F
SALISBURY      CLOUDY    62  33  33 SW18G28   30.31S
BAY BRIDGE AP* MOSUNNY   55  32  41 S16       30.25F
CAMBRIDGE*     SUNNY     59  32  36 S14G22    30.29F
EASTON*        CLOUDY    57  30  35 SW17G29   30.31F

$$

MDZ017>025-242100-
SOUTHERN MARYLAND

CITY           SKY/WX    TMP DP  RH WIND       PRES   REMARKS
PATUXENT RIVER PTSUNNY   62  38  40 SW12G21   30.28F
ST INIGOES     SUNNY     64  35  34 SW9       30.28F
LEONARDTOWN*   SUNNY     61  32  33 SW13      30.28F

$$

MDZ003>005-242100-
NORTH CENTRAL MARYLAND

CITY           SKY/WX    TMP DP  RH WIND       PRES   REMARKS
FREDERICK*     NOT AVBL
HAGERSTOWN APT MOSUNNY   60  42  51 S14       30.17F
WESTMINSTER*   MOSUNNY   61  41  48 S17       30.18F

$$

MDZ501>502-242100-
WESTERN MARYLAND

CITY           SKY/WX    TMP DP  RH WIND       PRES   REMARKS
OAKLAND*       CLOUDY    63  46  55 SW14G24   30.18F
CUMBERLAND*    MOSUNNY   68  45  42 CALM      30.15F

$$

VAZ025>031-242100-
SHENANDOAH VALLEY

CITY           SKY/WX    TMP DP  RH WIND       PRES   REMARKS
WINCHESTER*    CLOUDY    63  41  45 S7        30.18F
FRONT ROYAL*     N/A    N/A N/A N/A MISG        N/A
LURAY*         CLOUDY    68  43  40 S14G20    30.20F
NEW MARKET*    CLOUDY    67  38  33 S12G21    30.19F
STAUNTON*      MOSUNNY   66  38  35 S22       30.24F
WAYNESBORO*    CLOUDY    66  41  40 S8        30.25F

$$

WVZ021-048>050-054>055-242100-
EASTERN WEST VIRGINIA PANHANDLE

CITY           SKY/WX    TMP DP  RH WIND       PRES   REMARKS
MARTINSBURG    CLOUDY    63  40  42 S12       30.17F
PETERSBURG*    MOSUNNY   78  53  41 W9        30.14F

$$

VAZ036>039-050-242100-
CENTRAL FOOTHILLS

CITY           SKY/WX    TMP DP  RH WIND       PRES   REMARKS
CHARLOTTESVILL MOSUNNY   67  36  31 SW10      30.25F
CULPEPER*      MOSUNNY   63  39  41 SW10G17   30.25F
ORANGE*        MOSUNNY   61  34  36 S13G23    30.27F
GORDONSVILLE*  MOSUNNY   63  37  38 SW15      30.25F
WARRENTON*     MOSUNNY   60  32  33 SW9G16    30.25F

$$

VAZ055>057-242100-
NORTH AND CENTRAL PIEDMONT

CITY           SKY/WX    TMP DP  RH WIND       PRES   REMARKS
FREDERICKSBRG* SUNNY     61  37  41 SW17      30.27F
STAFFORD*      SUNNY     59  34  39 SW13G18   30.31F

$$

NCZ024-NYZ072-PAZ021-071-VAZ022-071-242100-
OTHER REGIONAL OBSERVATIONS

CITY           SKY/WX    TMP DP  RH WIND       PRES   REMARKS
NEW YORK CITY  MOSUNNY   51  29  42 MISG      30.19F
PHILADELPHIA   PTSUNNY   57  33  40 SW15G25   30.22F
PITTSBURGH     PTSUNNY   73  49  42 SW17G26   30.07F
ROANOKE        MOSUNNY   69  41  36 VRB6      30.30F
RICHMOND       PTSUNNY   69  41  36 S18       30.30F
RALEIGH        MOSUNNY   70  46  42 SW16      30.38F

$$

ANZ530>537-242100-
MARINE OBSERVATIONS

STATION/POSITION TIME  TEMP    WIND        PRES
                       AIR SEA DIR/SP/G
                 (UTC) (F)     (DEG/KT/KT) (MB)
THOMAS PT LIGHT  2000   46 44  170/ 21/ 22   N/A
BALT KEY BRIDGE  1948   57     200/ 11/ 14 1023.6F
COVE POINT       1948   46     170/ 14/ 17 1026.0F
LEWISETTA        1948   62 47  250/ 14/ 19 1025.5F
SOLOMONS ISLAND  1948   59 45  220/ 10/ 18   N/A
PINEY POINT      1948          250/  5/  9   N/A

$$




USA.gov is the U.S. government's official web portal to all federal, state and local government web resources and services.